Time,TemperatureF,DewpointF,PressureIn,WindDirection,WindDirectionDegrees,WindSpeedMPH,WindSpeedGustMPH,Humidity,HourlyPrecipIn,Conditions,Clouds,dailyrainin,SoftwareType,DateUTC
2013-04-08 00:03:00,42.0,38.0,30.14,East,83,0.0,2.0,84,0.00,,,0.01,,2013-04-08 04:03:00,
2013-04-08 00:13:00,42.0,38.0,30.14,East,83,0.0,2.0,84,0.00,,,0.01,,2013-04-08 04:13:00,
2013-04-08 00:23:00,42.0,38.0,30.14,SE,138,0.0,3.0,86,0.00,,,0.01,,2013-04-08 04:23:00,
2013-04-08 00:34:00,41.0,37.0,30.14,SE,138,0.0,1.0,86,0.00,,,0.01,,2013-04-08 04:34:00,
2013-04-08 00:44:00,41.0,37.0,30.14,SE,138,0.0,1.0,86,0.00,,,0.01,,2013-04-08 04:44:00,
2013-04-08 00:52:00,41.0,37.0,30.14,SSE,154,0.0,1.0,86,0.00,,,0.01,,2013-04-08 04:52:00,
2013-04-08 01:03:00,39.0,35.0,30.15,SE,136,0.0,1.0,87,0.00,,,0.01,,2013-04-08 05:03:00,
2013-04-08 01:12:00,39.0,35.0,30.15,SE,136,0.0,1.0,87,0.00,,,0.01,,2013-04-08 05:12:00,
2013-04-08 01:22:00,39.0,35.0,30.15,SE,136,0.0,1.0,87,0.00,,,0.01,,2013-04-08 05:22:00,
2013-04-08 01:32:00,38.0,35.0,30.14,SE,135,0.0,1.0,89,0.00,,,0.01,,2013-04-08 05:32:00,
2013-04-08 01:42:00,38.0,35.0,30.14,SE,135,0.0,1.0,89,0.00,,,0.01,,2013-04-08 05:42:00,
2013-04-08 01:52:00,37.0,35.0,30.14,SE,135,0.0,1.0,91,0.00,,,0.01,,2013-04-08 05:52:00,
2013-04-08 02:02:00,37.0,35.0,30.13,SE,135,0.0,0.0,92,0.00,,,0.01,,2013-04-08 06:02:00,
2013-04-08 02:12:00,37.0,35.0,30.13,SE,135,0.0,0.0,92,0.00,,,0.01,,2013-04-08 06:12:00,
2013-04-08 02:22:00,36.0,34.0,30.13,SE,135,0.0,0.0,92,0.00,,,0.01,,2013-04-08 06:22:00,
2013-04-08 02:32:00,36.0,34.0,30.13,SE,136,0.0,0.0,92,0.00,,,0.01,,2013-04-08 06:32:00,
2013-04-08 02:43:00,36.0,34.0,30.13,SE,136,0.0,0.0,92,0.00,,,0.01,,2013-04-08 06:43:00,
2013-04-08 02:52:00,35.0,33.0,30.13,ENE,68,0.0,1.0,91,0.00,,,0.01,,2013-04-08 06:52:00,
2013-04-08 03:02:00,34.0,32.0,30.12,ENE,68,0.0,1.0,92,0.00,,,0.01,,2013-04-08 07:02:00,
2013-04-08 03:12:00,34.0,32.0,30.12,ENE,68,0.0,1.0,92,0.00,,,0.01,,2013-04-08 07:12:00,
2013-04-08 03:22:00,35.0,33.0,30.12,ENE,68,0.0,1.0,92,0.00,,,0.01,,2013-04-08 07:22:00,
2013-04-08 03:33:00,35.0,33.0,30.12,ENE,68,0.0,1.0,92,0.00,,,0.01,,2013-04-08 07:33:00,
2013-04-08 03:42:00,35.0,33.0,30.12,ENE,68,0.0,1.0,92,0.00,,,0.01,,2013-04-08 07:42:00,
2013-04-08 03:52:00,33.0,31.0,30.12,ENE,70,0.0,0.0,92,0.00,,,0.01,,2013-04-08 07:52:00,
2013-04-08 04:02:00,34.0,32.0,30.12,ENE,69,0.0,0.0,93,0.00,,,0.01,,2013-04-08 08:02:00,
2013-04-08 04:12:00,34.0,32.0,30.12,ENE,69,0.0,0.0,93,0.00,,,0.01,,2013-04-08 08:12:00,
2013-04-08 04:22:00,34.0,32.0,30.12,ENE,69,0.0,0.0,93,0.00,,,0.01,,2013-04-08 08:22:00,
2013-04-08 04:33:00,34.0,32.0,30.13,West,271,0.0,0.0,93,0.00,,,0.01,,2013-04-08 08:33:00,
2013-04-08 04:42:00,34.0,32.0,30.13,West,271,0.0,0.0,92,0.00,,,0.01,,2013-04-08 08:42:00,
2013-04-08 04:52:00,34.0,32.0,30.14,West,271,0.0,0.0,93,0.00,,,0.01,,2013-04-08 08:52:00,
2013-04-08 05:03:00,35.0,33.0,30.14,NNW,328,0.0,0.0,94,0.00,,,0.01,,2013-04-08 09:03:00,
2013-04-08 05:12:00,35.0,33.0,30.14,SW,232,0.0,1.0,93,0.00,,,0.01,,2013-04-08 09:12:00,
2013-04-08 05:23:00,35.0,33.0,30.14,SW,232,0.0,1.0,93,0.00,,,0.01,,2013-04-08 09:23:00,
2013-04-08 05:33:00,36.0,34.0,30.13,SW,232,0.0,0.0,94,0.00,,,0.01,,2013-04-08 09:33:00,
2013-04-08 05:43:00,36.0,34.0,30.13,SW,232,0.0,0.0,94,0.00,,,0.01,,2013-04-08 09:43:00,
2013-04-08 05:53:00,36.0,34.0,30.14,SW,232,0.0,1.0,93,0.00,,,0.01,,2013-04-08 09:53:00,
2013-04-08 06:03:00,36.0,34.0,30.14,SW,232,0.0,0.0,93,0.00,,,0.01,,2013-04-08 10:03:00,
2013-04-08 06:13:00,36.0,34.0,30.14,SW,232,0.0,0.0,93,0.00,,,0.01,,2013-04-08 10:13:00,
2013-04-08 06:23:00,36.0,34.0,30.15,SW,236,0.0,0.0,94,0.00,,,0.01,,2013-04-08 10:23:00,
2013-04-08 06:33:00,36.0,34.0,30.16,NE,36,0.0,2.0,93,0.00,,,0.01,,2013-04-08 10:33:00,
2013-04-08 06:42:00,36.0,34.0,30.16,NE,36,0.0,2.0,93,0.00,,,0.01,,2013-04-08 10:42:00,
2013-04-08 06:52:00,37.0,36.0,30.16,NE,37,0.0,1.0,95,0.00,,,0.01,,2013-04-08 10:52:00,
2013-04-08 07:03:00,37.0,35.0,30.17,WSW,249,0.0,0.0,94,0.00,,,0.01,,2013-04-08 11:03:00,
2013-04-08 07:12:00,36.0,34.0,30.17,ENE,65,0.0,2.0,94,0.00,,,0.01,,2013-04-08 11:12:00,
2013-04-08 07:23:00,36.0,34.0,30.17,ENE,65,0.0,2.0,94,0.00,,,0.01,,2013-04-08 11:23:00,
2013-04-08 07:32:00,37.0,36.0,30.18,SE,139,0.0,1.0,95,0.00,,,0.01,,2013-04-08 11:32:00,
2013-04-08 07:42:00,37.0,36.0,30.18,SE,139,0.0,1.0,95,0.00,,,0.01,,2013-04-08 11:42:00,
2013-04-08 07:52:00,37.0,36.0,30.18,SE,138,0.0,0.0,95,0.00,,,0.01,,2013-04-08 11:52:00,
2013-04-08 08:03:00,38.0,37.0,30.19,SE,136,0.0,0.0,95,0.00,,,0.01,,2013-04-08 12:03:00,
2013-04-08 08:12:00,38.0,37.0,30.19,SE,136,0.0,0.0,95,0.00,,,0.01,,2013-04-08 12:12:00,
2013-04-08 08:23:00,38.0,37.0,30.19,WSW,241,0.0,0.0,95,0.00,,,0.01,,2013-04-08 12:23:00,
2013-04-08 08:33:00,39.0,37.0,30.18,West,264,0.0,0.0,94,0.00,,,0.01,,2013-04-08 12:33:00,
2013-04-08 08:42:00,39.0,37.0,30.18,West,264,0.0,0.0,94,0.00,,,0.01,,2013-04-08 12:42:00,
2013-04-08 08:52:00,41.0,39.0,30.19,WSW,253,0.0,2.0,92,0.00,,,0.01,,2013-04-08 12:52:00,
2013-04-08 09:03:00,42.0,38.0,30.19,WSW,244,0.0,1.0,87,0.00,,,0.01,,2013-04-08 13:03:00,
2013-04-08 09:12:00,42.0,38.0,30.19,WSW,244,0.0,1.0,87,0.00,,,0.01,,2013-04-08 13:12:00,
2013-04-08 09:22:00,43.0,38.0,30.19,West,260,0.0,3.0,82,0.00,,,0.01,,2013-04-08 13:22:00,
2013-04-08 09:32:00,45.0,39.0,30.19,NE,54,1.0,2.0,80,0.00,,,0.01,,2013-04-08 13:32:00,
2013-04-08 09:43:00,45.0,39.0,30.19,NE,54,1.0,2.0,80,0.00,,,0.01,,2013-04-08 13:43:00,
2013-04-08 09:52:00,45.0,37.0,30.19,ESE,115,1.0,5.0,74,0.00,,,0.01,,2013-04-08 13:52:00,
2013-04-08 10:03:00,46.0,36.0,30.17,SW,233,2.0,5.0,69,0.00,,,0.01,,2013-04-08 14:03:00,
2013-04-08 10:12:00,46.0,36.0,30.17,SW,233,2.0,5.0,69,0.00,,,0.01,,2013-04-08 14:12:00,
2013-04-08 10:22:00,46.0,36.0,30.21,East,84,1.0,5.0,68,0.00,,,0.01,,2013-04-08 14:22:00,
2013-04-08 10:33:00,46.0,36.0,30.22,SSW,208,1.0,5.0,67,0.00,,,0.01,,2013-04-08 14:33:00,
2013-04-08 10:42:00,48.0,36.0,30.22,WSW,240,2.0,5.0,63,0.00,,,0.01,,2013-04-08 14:42:00,
2013-04-08 10:52:00,48.0,36.0,30.22,WSW,240,2.0,5.0,63,0.00,,,0.01,,2013-04-08 14:52:00,
2013-04-08 11:02:00,48.0,36.0,30.22,West,262,1.0,6.0,62,0.00,,,0.01,,2013-04-08 15:02:00,
2013-04-08 11:12:00,50.0,36.0,30.22,SSW,195,1.0,5.0,58,0.00,,,0.01,,2013-04-08 15:12:00,
2013-04-08 11:22:00,50.0,36.0,30.22,SSW,195,1.0,5.0,58,0.00,,,0.01,,2013-04-08 15:22:00,
2013-04-08 11:34:00,50.0,36.0,30.23,SW,218,2.0,7.0,58,0.00,,,0.01,,2013-04-08 15:34:00,
2013-04-08 11:43:00,50.0,36.0,30.23,SW,218,2.0,7.0,58,0.00,,,0.01,,2013-04-08 15:43:00,
2013-04-08 11:53:00,51.0,35.0,30.23,SW,222,2.0,8.0,55,0.00,,,0.01,,2013-04-08 15:53:00,
2013-04-08 12:03:00,52.0,36.0,30.23,ENE,57,0.0,5.0,54,0.00,,,0.01,,2013-04-08 16:03:00,
2013-04-08 12:13:00,52.0,36.0,30.23,ENE,57,0.0,5.0,54,0.00,,,0.01,,2013-04-08 16:13:00,
2013-04-08 12:23:00,53.0,35.0,30.23,SW,225,2.0,4.0,51,0.00,,,0.01,,2013-04-08 16:23:00,
2013-04-08 12:33:00,53.0,35.0,30.23,SW,225,2.0,4.0,51,0.00,,,0.01,,2013-04-08 16:33:00,
2013-04-08 12:42:00,53.0,35.0,30.22,North,9,3.0,8.0,51,0.00,,,0.01,,2013-04-08 16:42:00,
2013-04-08 12:53:00,54.0,35.0,30.22,West,269,3.0,9.0,48,0.00,,,0.01,,2013-04-08 16:53:00,
2013-04-08 13:03:00,55.0,35.0,30.21,WSW,257,3.0,5.0,46,0.00,,,0.01,,2013-04-08 17:03:00,
2013-04-08 13:12:00,57.0,35.0,30.21,West,276,2.0,4.0,44,0.00,,,0.01,,2013-04-08 17:12:00,
2013-04-08 13:23:00,57.0,35.0,30.21,West,276,2.0,4.0,44,0.00,,,0.01,,2013-04-08 17:23:00,
2013-04-08 13:32:00,58.0,35.0,30.21,WSW,255,3.0,7.0,42,0.00,,,0.01,,2013-04-08 17:32:00,
2013-04-08 13:43:00,58.0,35.0,30.21,WSW,255,3.0,7.0,42,0.00,,,0.01,,2013-04-08 17:43:00,
2013-04-08 13:52:00,57.0,35.0,30.21,WSW,249,4.0,8.0,43,0.00,,,0.01,,2013-04-08 17:52:00,
2013-04-08 14:02:00,57.0,34.0,30.22,WSW,238,1.0,8.0,42,0.00,,,0.01,,2013-04-08 18:02:00,
2013-04-08 14:12:00,57.0,34.0,30.22,WSW,238,1.0,8.0,42,0.00,,,0.01,,2013-04-08 18:12:00,
2013-04-08 14:23:00,57.0,33.0,30.21,WSW,238,4.0,7.0,40,0.00,,,0.01,,2013-04-08 18:23:00,
2013-04-08 14:32:00,57.0,34.0,30.20,South,176,1.0,5.0,41,0.00,,,0.01,,2013-04-08 18:32:00,
2013-04-08 14:42:00,59.0,35.0,30.20,WSW,253,2.0,4.0,41,0.00,,,0.01,,2013-04-08 18:42:00,
2013-04-08 14:52:00,59.0,35.0,30.20,WSW,253,2.0,4.0,41,0.00,,,0.01,,2013-04-08 18:52:00,
2013-04-08 15:03:00,59.0,34.0,30.20,SW,226,3.0,6.0,39,0.00,,,0.01,,2013-04-08 19:03:00,
2013-04-08 15:12:00,59.0,34.0,30.20,SW,226,3.0,6.0,39,0.00,,,0.01,,2013-04-08 19:12:00,
2013-04-08 15:23:00,59.0,34.0,30.20,WSW,250,2.0,5.0,39,0.00,,,0.01,,2013-04-08 19:23:00,
2013-04-08 15:33:00,60.0,34.0,30.20,WSW,255,4.0,7.0,38,0.00,,,0.01,,2013-04-08 19:33:00,
2013-04-08 15:42:00,60.0,34.0,30.19,WSW,250,1.0,5.0,37,0.00,,,0.01,,2013-04-08 19:42:00,
2013-04-08 15:52:00,60.0,34.0,30.19,WSW,250,1.0,5.0,37,0.00,,,0.01,,2013-04-08 19:52:00,
2013-04-08 16:02:00,60.0,33.0,30.18,WSW,257,0.0,4.0,36,0.00,,,0.01,,2013-04-08 20:02:00,
2013-04-08 16:12:00,60.0,33.0,30.19,SSE,158,1.0,3.0,36,0.00,,,0.01,,2013-04-08 20:12:00,
2013-04-08 16:23:00,60.0,33.0,30.19,SSE,158,1.0,3.0,36,0.00,,,0.01,,2013-04-08 20:23:00,
2013-04-08 16:33:00,60.0,33.0,30.19,WSW,256,1.0,4.0,36,0.00,,,0.01,,2013-04-08 20:33:00,
2013-04-08 16:43:00,60.0,33.0,30.19,WSW,256,1.0,4.0,36,0.00,,,0.01,,2013-04-08 20:43:00,
2013-04-08 16:52:00,60.0,34.0,30.18,West,266,2.0,5.0,38,0.00,,,0.01,,2013-04-08 20:52:00,
2013-04-08 17:02:00,60.0,32.0,30.17,SSW,210,1.0,5.0,34,0.00,,,0.01,,2013-04-08 21:02:00,
2013-04-08 17:12:00,61.0,33.0,30.17,West,276,0.0,4.0,35,0.00,,,0.01,,2013-04-08 21:12:00,
2013-04-08 17:22:00,61.0,33.0,30.17,West,276,0.0,4.0,35,0.00,,,0.01,,2013-04-08 21:22:00,
2013-04-08 17:33:00,61.0,33.0,30.17,WSW,252,1.0,4.0,35,0.00,,,0.01,,2013-04-08 21:33:00,
2013-04-08 17:43:00,61.0,33.0,30.17,WSW,252,1.0,4.0,35,0.00,,,0.01,,2013-04-08 21:43:00,
2013-04-08 17:52:00,60.0,32.0,30.16,West,269,1.0,3.0,35,0.00,,,0.01,,2013-04-08 21:52:00,
2013-04-08 18:03:00,59.0,33.0,30.16,West,269,1.0,2.0,38,0.00,,,0.01,,2013-04-08 22:03:00,
2013-04-08 18:13:00,59.0,33.0,30.16,West,269,1.0,2.0,38,0.00,,,0.01,,2013-04-08 22:13:00,
2013-04-08 18:23:00,59.0,31.0,30.17,WSW,256,1.0,3.0,35,0.00,,,0.01,,2013-04-08 22:23:00,
2013-04-08 18:32:00,59.0,31.0,30.17,WSW,256,1.0,3.0,35,0.00,,,0.01,,2013-04-08 22:32:00,
2013-04-08 18:43:00,59.0,32.0,30.18,WSW,258,0.0,1.0,36,0.00,,,0.01,,2013-04-08 22:43:00,
2013-04-08 18:52:00,59.0,31.0,30.18,West,264,0.0,3.0,35,0.00,,,0.01,,2013-04-08 22:52:00,
2013-04-08 19:03:00,57.0,34.0,30.19,West,264,0.0,1.0,41,0.00,,,0.01,,2013-04-08 23:03:00,
2013-04-08 19:12:00,57.0,34.0,30.19,West,264,0.0,1.0,41,0.00,,,0.01,,2013-04-08 23:12:00,
2013-04-08 19:22:00,57.0,34.0,30.19,West,264,0.0,1.0,41,0.00,,,0.01,,2013-04-08 23:22:00,
2013-04-08 19:32:00,52.0,35.0,30.19,West,266,0.0,0.0,52,0.00,,,0.00,,2013-04-08 23:32:00,
2013-04-08 19:43:00,52.0,35.0,30.19,West,266,0.0,0.0,52,0.00,,,0.00,,2013-04-08 23:43:00,
2013-04-08 19:52:00,50.0,35.0,30.19,West,265,0.0,1.0,57,0.00,,,0.00,,2013-04-08 23:52:00,
2013-04-08 20:02:00,49.0,35.0,30.19,West,266,0.0,0.0,58,0.00,,,0.00,,2013-04-09 00:02:00,
2013-04-08 20:13:00,49.0,35.0,30.19,West,266,0.0,0.0,58,0.00,,,0.00,,2013-04-09 00:13:00,
2013-04-08 20:22:00,49.0,36.0,30.19,West,266,0.0,1.0,60,0.00,,,0.00,,2013-04-09 00:22:00,
2013-04-08 20:32:00,47.0,34.0,30.19,NW,317,0.0,0.0,61,0.00,,,0.00,,2013-04-09 00:32:00,
2013-04-08 20:42:00,47.0,34.0,30.19,NW,317,0.0,0.0,61,0.00,,,0.00,,2013-04-09 00:42:00,
2013-04-08 20:52:00,47.0,35.0,30.21,NW,317,0.0,0.0,64,0.00,,,0.00,,2013-04-09 00:52:00,
2013-04-08 21:03:00,46.0,35.0,30.21,NW,319,0.0,1.0,65,0.00,,,0.00,,2013-04-09 01:03:00,
2013-04-08 21:12:00,46.0,35.0,30.21,NW,319,0.0,1.0,65,0.00,,,0.00,,2013-04-09 01:12:00,
2013-04-08 21:22:00,45.0,34.0,30.21,NW,319,0.0,0.0,66,0.00,,,0.00,,2013-04-09 01:22:00,
2013-04-08 21:34:00,45.0,35.0,30.21,NW,319,0.0,1.0,67,0.00,,,0.00,,2013-04-09 01:34:00,
2013-04-08 21:42:00,44.0,34.0,30.21,NW,319,0.0,0.0,67,0.00,,,0.00,,2013-04-09 01:42:00,
2013-04-08 21:52:00,44.0,34.0,30.21,NW,319,0.0,0.0,67,0.00,,,0.00,,2013-04-09 01:52:00,
2013-04-08 22:02:00,44.0,34.0,30.21,NW,319,0.0,0.0,67,0.00,,,0.00,,2013-04-09 02:02:00,
2013-04-08 22:13:00,44.0,34.0,30.21,NW,319,0.0,0.0,67,0.00,,,0.00,,2013-04-09 02:13:00,
2013-04-08 22:22:00,44.0,33.0,30.21,NW,319,0.0,0.0,66,0.00,,,0.00,,2013-04-09 02:22:00,
2013-04-08 22:33:00,44.0,33.0,30.20,NNW,327,0.0,0.0,66,0.00,,,0.00,,2013-04-09 02:33:00,
2013-04-08 22:43:00,44.0,33.0,30.20,NNW,328,0.0,0.0,66,0.00,,,0.00,,2013-04-09 02:43:00,
2013-04-08 22:52:00,44.0,33.0,30.20,NNW,328,0.0,0.0,66,0.00,,,0.00,,2013-04-09 02:52:00,
2013-04-08 23:02:00,45.0,34.0,30.20,NNE,15,0.0,1.0,65,0.00,,,0.00,,2013-04-09 03:02:00,
2013-04-08 23:12:00,45.0,34.0,30.20,NNE,15,0.0,1.0,65,0.00,,,0.00,,2013-04-09 03:12:00,
2013-04-08 23:22:00,44.0,34.0,30.19,NNE,15,0.0,0.0,67,0.00,,,0.00,,2013-04-09 03:22:00,
2013-04-08 23:33:00,44.0,34.0,30.19,SE,144,0.0,1.0,67,0.00,,,0.00,,2013-04-09 03:33:00,
2013-04-08 23:43:00,44.0,34.0,30.19,SE,144,0.0,1.0,67,0.00,,,0.00,,2013-04-09 03:43:00,
2013-04-08 23:53:00,45.0,35.0,30.18,East,93,0.0,1.0,67,0.00,,,0.00,,2013-04-09 03:53:00,